Regional Weather Roundup
Issued by NWS

Home | Current Version | Previous Version | Graphics & Text | Print | Product List | Glossary On
Versions: 1 2 3 4 5 6 7 8 9 10 11 12 13 14 15 16 17 18 19 20 21 22 23 24 25 26 27 28 29 30 31 32 33 34 35 36 37 38 39 40 41 42 43 44 45 46 47 48 49 50
500
ASUS43 KFSD 211102
RWRSD

WEATHER ROUNDUP FOR SOUTH DAKOTA
NATIONAL WEATHER SERVICE SIOUX FALLS SD
600 AM CDT SAT APR 21 2018

NOTE: "FAIR" INDICATES FEW OR NO CLOUDS BELOW 12,000 FEET WITH NO
SIGNIFICANT WEATHER AND/OR OBSTRUCTIONS TO VISIBILITY.


SDZ001>005-009-010-012>017-211200-
NORTHWEST AND NORTH CENTRAL SOUTH DAKOTA

CITY           SKY/WX    TMP DP  RH WIND       PRES   REMARKS
BUFFALO          N/A     40  36  86 S15       30.11F
FAITH            N/A     39  39 100 S13       30.25S
MOBRIDGE       CLOUDY    42  38  85 SE10      30.28S
$$

SDZ012>016-024>037-041>051-057-063-072>074-211200-
SOUTHWEST AND SOUTH CENTRAL SOUTH DAKOTA

CITY           SKY/WX    TMP DP  RH WIND       PRES   REMARKS
RAPID CTY ARPT CLOUDY    37  36  96 S12       30.20F
PIERRE         CLOUDY    39  39 100 E5        30.29F
CUSTER         FOG       31  30  96 S8        30.17F VSB 1/2 WCI  23
ELLSWORTH AFB  CLOUDY   N/A N/A N/A S12       30.21
PHILIP         CLOUDY    38  38 100 E7        30.25F FOG
PINE RIDGE     CLOUDY    39  36  89 SE8       30.22F
SPEARFISH      MOCLDY    34  30  86 SW5       30.17F WCI  30
WINNER         CLOUDY    38  34  85 NE5       30.29S
$$

SDZ004>011-016>023-039-040-211200-
NORTHEAST SOUTH DAKOTA

CITY           SKY/WX    TMP DP  RH WIND       PRES   REMARKS
ABERDEEN       CLOUDY    39  36  89 CALM      30.35R
WATERTOWN      CLOUDY    35  32  88 S6        30.35S
BROOKINGS      CLOUDY    37  33  85 SE6       30.36F
SISSETON         N/A     35  33  92 SE3       30.35S
$$

SDZ017-020-022-023-036>040-048>070-211200-
SOUTHEAST SOUTH DAKOTA

CITY           SKY/WX    TMP DP  RH WIND       PRES   REMARKS
SIOUX FALLS    CLOUDY    38  30  73 NE9       30.34F
HURON          LGT RAIN  40  34  79 S7        30.34R
CHAMBERLAIN    CLOUDY    41  41 100 NW3       30.31S
MITCHELL       CLOUDY    37  34  89 E8        30.34F
YANKTON        CLOUDY    40  35  83 NE8       30.31F
$$

ABBREVIATIONS USED IN REMARKS
   TC - TEMPERATURE IN CELSIUS
  WCI - WIND CHILL INDEX
   HX - HEAT INDEX
  VSB - VISIBILITY





USA.gov is the U.S. government's official web portal to all federal, state and local government web resources and services.